contact:dominique.lefevre@mio.osupytheas.fr, maurice.libes@osupytheas.fr, didier.mallarino@osupytheas.fr
Project:EMSO http://www.emso-fr.org/EMSO-France
Depth: 2436.0 m
Title:EMSO Ligure Ouest : Data MII capteur MICROCAT
DateTime_Computer,Latitude,Longitude,Temperature,Conductivity,Pressure,DateTime_Instrument
DateTime_Computer,Latitude,Longitude,degC,S m-1,dbar,DateTime_Instrument
2022-10-30T00:00:42Z,42.805,6.029,13.3070,4.60178,2470.67,2022-10-30T02:02:38Z
2022-10-30T00:03:45Z,42.805,6.029,13.3065,4.60106,2470.684,2022-10-30T02:05:41Z
2022-10-30T00:06:48Z,42.805,6.029,13.3078,4.60137,2470.693,2022-10-30T02:08:44Z
2022-10-30T00:09:51Z,42.805,6.029,13.3080,4.60144,2470.624,2022-10-30T02:11:48Z
2022-10-30T00:12:54Z,42.805,6.029,13.3092,4.60164,2470.67,2022-10-30T02:14:51Z
2022-10-30T00:15:57Z,42.805,6.029,13.3049,4.60148,2470.67,2022-10-30T02:17:54Z
2022-10-30T00:19:00Z,42.805,6.029,13.3067,4.60146,2470.67,2022-10-30T02:20:57Z
2022-10-30T00:22:03Z,42.805,6.029,13.3051,4.60152,2470.67,2022-10-30T02:24:00Z
2022-10-30T00:25:06Z,42.805,6.029,13.3061,4.60125,2470.633,2022-10-30T02:27:03Z
2022-10-30T00:28:09Z,42.805,6.029,13.3051,4.60148,2470.684,2022-10-30T02:30:06Z
2022-10-30T00:31:12Z,42.805,6.029,13.3073,4.60150,2470.646,2022-10-30T02:33:09Z
2022-10-30T00:34:16Z,42.805,6.029,13.3055,4.60113,2470.661,2022-10-30T02:36:12Z
2022-10-30T00:37:19Z,42.805,6.029,13.3069,4.60137,2470.646,2022-10-30T02:39:15Z
2022-10-30T00:40:22Z,42.805,6.029,13.3092,4.60122,2470.646,2022-10-30T02:42:18Z
2022-10-30T00:43:25Z,42.805,6.029,13.3075,4.60157,2470.67,2022-10-30T02:45:21Z
2022-10-30T00:46:28Z,42.805,6.029,13.3083,4.60184,2470.646,2022-10-30T02:48:24Z
2022-10-30T00:49:31Z,42.805,6.029,13.3041,4.60113,2470.661,2022-10-30T02:51:28Z
2022-10-30T00:52:34Z,42.805,6.029,13.3062,4.60115,2470.661,2022-10-30T02:54:31Z
2022-10-30T00:55:37Z,42.805,6.029,13.3042,4.60121,2470.646,2022-10-30T02:57:34Z
2022-10-30T00:58:40Z,42.805,6.029,13.3041,4.60161,2470.661,2022-10-30T03:00:37Z
2022-10-30T01:01:43Z,42.805,6.029,13.3067,4.60113,2470.624,2022-10-30T03:03:40Z
2022-10-30T01:04:46Z,42.805,6.029,13.3078,4.60094,2470.646,2022-10-30T03:06:43Z
2022-10-30T01:07:49Z,42.805,6.029,13.3051,4.60114,2470.646,2022-10-30T03:09:46Z
2022-10-30T01:10:52Z,42.805,6.029,13.3025,4.60137,2470.661,2022-10-30T03:12:49Z
2022-10-30T01:13:56Z,42.805,6.029,13.3044,4.60105,2470.684,2022-10-30T03:15:52Z
2022-10-30T01:16:59Z,42.805,6.029,13.3049,4.60114,2470.624,2022-10-30T03:18:55Z
2022-10-30T01:20:02Z,42.805,6.029,13.3034,4.60089,2470.637,2022-10-30T03:21:58Z
2022-10-30T01:23:05Z,42.805,6.029,13.3042,4.60074,2470.661,2022-10-30T03:25:01Z
2022-10-30T01:26:08Z,42.805,6.029,13.3021,4.60085,2470.637,2022-10-30T03:28:05Z
2022-10-30T01:29:11Z,42.805,6.029,13.3024,4.60101,2470.624,2022-10-30T03:31:08Z
2022-10-30T01:32:14Z,42.805,6.029,13.3033,4.60103,2470.637,2022-10-30T03:34:11Z
2022-10-30T01:35:17Z,42.805,6.029,13.3035,4.60102,2470.614,2022-10-30T03:37:14Z
2022-10-30T01:38:20Z,42.805,6.029,13.3046,4.60120,2470.614,2022-10-30T03:40:17Z
2022-10-30T01:41:23Z,42.805,6.029,13.3067,4.60142,2470.646,2022-10-30T03:43:20Z
2022-10-30T01:44:26Z,42.805,6.029,13.3025,4.60128,2470.637,2022-10-30T03:46:23Z
2022-10-30T01:47:29Z,42.805,6.029,13.3082,4.60135,2470.646,2022-10-30T03:49:26Z
2022-10-30T01:50:32Z,42.805,6.029,13.3043,4.60133,2470.624,2022-10-30T03:52:29Z
2022-10-30T01:53:36Z,42.805,6.029,13.3034,4.60146,2470.6,2022-10-30T03:55:32Z
2022-10-30T01:56:39Z,42.805,6.029,13.3066,4.60150,2470.6,2022-10-30T03:58:35Z
2022-10-30T01:59:42Z,42.805,6.029,13.3039,4.60122,2470.6,2022-10-30T04:01:38Z
2022-10-30T02:02:45Z,42.805,6.029,13.3056,4.60124,2470.624,2022-10-30T04:04:41Z
2022-10-30T02:05:48Z,42.805,6.029,13.3024,4.60117,2470.6,2022-10-30T04:07:45Z
2022-10-30T02:08:51Z,42.805,6.029,13.3031,4.60101,2470.614,2022-10-30T04:10:48Z
2022-10-30T02:11:54Z,42.805,6.029,13.3036,4.60110,2470.637,2022-10-30T04:13:51Z
2022-10-30T02:14:57Z,42.805,6.029,13.3038,4.60109,2470.591,2022-10-30T04:16:54Z
2022-10-30T02:18:00Z,42.805,6.029,13.3031,4.60117,2470.61,2022-10-30T04:19:57Z
2022-10-30T02:21:03Z,42.805,6.029,13.3041,4.60154,2470.6,2022-10-30T04:23:00Z
2022-10-30T02:24:06Z,42.805,6.029,13.3053,4.60103,2470.6,2022-10-30T04:26:03Z
2022-10-30T02:27:09Z,42.805,6.029,13.3021,4.60136,2470.6,2022-10-30T04:29:06Z
2022-10-30T02:30:12Z,42.805,6.029,13.3049,4.60125,2470.6,2022-10-30T04:32:09Z
2022-10-30T02:33:16Z,42.805,6.029,13.3040,4.60069,2470.637,2022-10-30T04:35:12Z
2022-10-30T02:36:19Z,42.805,6.029,13.3055,4.60086,2470.614,2022-10-30T04:38:15Z
2022-10-30T02:39:22Z,42.805,6.029,13.3036,4.60139,2470.637,2022-10-30T04:41:18Z
2022-10-30T02:42:25Z,42.805,6.029,13.3060,4.60107,2470.614,2022-10-30T04:44:21Z
2022-10-30T02:45:28Z,42.805,6.029,13.3036,4.60110,2470.577,2022-10-30T04:47:24Z
2022-10-30T02:48:31Z,42.805,6.029,13.3058,4.60126,2470.591,2022-10-30T04:50:28Z
2022-10-30T02:51:34Z,42.805,6.029,13.3058,4.60119,2470.591,2022-10-30T04:53:31Z
2022-10-30T02:54:37Z,42.805,6.029,13.3064,4.60143,2470.614,2022-10-30T04:56:34Z
2022-10-30T02:57:40Z,42.805,6.029,13.3064,4.60070,2470.591,2022-10-30T04:59:37Z
2022-10-30T03:00:43Z,42.805,6.029,13.3062,4.60141,2470.591,2022-10-30T05:02:40Z
2022-10-30T03:03:46Z,42.805,6.029,13.3036,4.60111,2470.6,2022-10-30T05:05:43Z
2022-10-30T03:06:49Z,42.805,6.029,13.3058,4.60081,2470.591,2022-10-30T05:08:46Z
2022-10-30T03:09:52Z,42.805,6.029,13.3047,4.60103,2470.6,2022-10-30T05:11:49Z
2022-10-30T03:12:56Z,42.805,6.029,13.3060,4.60078,2470.567,2022-10-30T05:14:52Z
2022-10-30T03:15:59Z,42.805,6.029,13.3056,4.60119,2470.614,2022-10-30T05:17:55Z
2022-10-30T03:19:02Z,42.805,6.029,13.3060,4.60097,2470.577,2022-10-30T05:20:58Z
2022-10-30T03:22:05Z,42.805,6.029,13.3043,4.60074,2470.591,2022-10-30T05:24:01Z
2022-10-30T03:25:08Z,42.805,6.029,13.3030,4.60102,2470.628,2022-10-30T05:27:05Z
2022-10-30T03:28:11Z,42.805,6.029,13.3047,4.60099,2470.567,2022-10-30T05:30:08Z
2022-10-30T03:31:14Z,42.805,6.029,13.3028,4.60087,2470.577,2022-10-30T05:33:11Z
2022-10-30T03:34:17Z,42.805,6.029,13.3039,4.60086,2470.614,2022-10-30T05:36:14Z
2022-10-30T03:37:20Z,42.805,6.029,13.3047,4.60087,2470.6,2022-10-30T05:39:17Z
2022-10-30T03:40:23Z,42.805,6.029,13.3031,4.60084,2470.614,2022-10-30T05:42:20Z
2022-10-30T03:43:26Z,42.805,6.029,13.3029,4.60062,2470.591,2022-10-30T05:45:23Z
2022-10-30T03:46:29Z,42.805,6.029,13.3029,4.60070,2470.577,2022-10-30T05:48:26Z
2022-10-30T03:49:32Z,42.805,6.029,13.3037,4.60069,2470.577,2022-10-30T05:51:29Z
2022-10-30T03:52:36Z,42.805,6.029,13.3029,4.60082,2470.591,2022-10-30T05:54:32Z
2022-10-30T03:55:39Z,42.805,6.029,13.3029,4.60081,2470.53,2022-10-30T05:57:35Z
2022-10-30T03:58:42Z,42.805,6.029,13.3027,4.60087,2470.591,2022-10-30T06:00:38Z
2022-10-30T04:01:45Z,42.805,6.029,13.3035,4.60069,2470.577,2022-10-30T06:03:41Z
2022-10-30T04:04:48Z,42.805,6.029,13.3021,4.60084,2470.577,2022-10-30T06:06:45Z
2022-10-30T04:07:51Z,42.805,6.029,13.3021,4.60091,2470.553,2022-10-30T06:09:48Z
2022-10-30T04:10:54Z,42.805,6.029,13.3024,4.60075,2470.577,2022-10-30T06:12:51Z
2022-10-30T04:13:57Z,42.805,6.029,13.3028,4.60087,2470.6,2022-10-30T06:15:54Z
2022-10-30T04:17:00Z,42.805,6.029,13.3029,4.60076,2470.6,2022-10-30T06:18:57Z
2022-10-30T04:20:03Z,42.805,6.029,13.3021,4.60084,2470.553,2022-10-30T06:22:00Z
2022-10-30T04:23:06Z,42.805,6.029,13.3029,4.60079,2470.577,2022-10-30T06:25:03Z
2022-10-30T04:26:09Z,42.805,6.029,13.3040,4.60067,2470.6,2022-10-30T06:28:06Z
2022-10-30T04:29:12Z,42.805,6.029,13.3031,4.60068,2470.567,2022-10-30T06:31:09Z
2022-10-30T04:32:16Z,42.805,6.029,13.3029,4.60075,2470.591,2022-10-30T06:34:12Z
2022-10-30T04:35:19Z,42.805,6.029,13.3034,4.60074,2470.591,2022-10-30T06:37:15Z
2022-10-30T04:38:22Z,42.805,6.029,13.3043,4.60074,2470.6,2022-10-30T06:40:18Z
2022-10-30T04:41:25Z,42.805,6.029,13.3039,4.60079,2470.591,2022-10-30T06:43:21Z
2022-10-30T04:44:28Z,42.805,6.029,13.3028,4.60079,2470.6,2022-10-30T06:46:25Z
2022-10-30T04:47:31Z,42.805,6.029,13.3030,4.60079,2470.567,2022-10-30T06:49:28Z
2022-10-30T04:50:34Z,42.805,6.029,13.3038,4.60086,2470.577,2022-10-30T06:52:31Z
2022-10-30T04:53:37Z,42.805,6.029,13.3034,4.60067,2470.577,2022-10-30T06:55:34Z
2022-10-30T04:56:40Z,42.805,6.029,13.3026,4.60070,2470.567,2022-10-30T06:58:37Z
2022-10-30T04:59:43Z,42.805,6.029,13.3039,4.60074,2470.6,2022-10-30T07:01:40Z
2022-10-30T05:02:46Z,42.805,6.029,13.3034,4.60088,2470.6,2022-10-30T07:04:43Z
2022-10-30T05:05:49Z,42.805,6.029,13.3039,4.60081,2470.577,2022-10-30T07:07:46Z
2022-10-30T05:08:53Z,42.805,6.029,13.3049,4.60069,2470.553,2022-10-30T07:10:49Z
2022-10-30T05:11:56Z,42.805,6.029,13.3031,4.60069,2470.577,2022-10-30T07:13:52Z
2022-10-30T05:14:59Z,42.805,6.029,13.3034,4.60075,2470.6,2022-10-30T07:16:55Z
2022-10-30T05:18:02Z,42.805,6.029,13.3031,4.60071,2470.577,2022-10-30T07:19:58Z
2022-10-30T05:21:05Z,42.805,6.029,13.3041,4.60071,2470.6,2022-10-30T07:23:01Z
2022-10-30T05:24:08Z,42.805,6.029,13.3056,4.60081,2470.577,2022-10-30T07:26:05Z
2022-10-30T05:27:11Z,42.805,6.029,13.3038,4.60074,2470.577,2022-10-30T07:29:08Z
2022-10-30T05:30:14Z,42.805,6.029,13.3024,4.60068,2470.624,2022-10-30T07:32:11Z
2022-10-30T05:33:17Z,42.805,6.029,13.3027,4.60074,2470.6,2022-10-30T07:35:14Z
2022-10-30T05:36:20Z,42.805,6.029,13.3033,4.60074,2470.6,2022-10-30T07:38:17Z
2022-10-30T05:39:23Z,42.805,6.029,13.3039,4.60077,2470.577,2022-10-30T07:41:20Z
2022-10-30T05:42:26Z,42.805,6.029,13.3036,4.60075,2470.591,2022-10-30T07:44:23Z
2022-10-30T05:45:29Z,42.805,6.029,13.3038,4.60080,2470.624,2022-10-30T07:47:26Z
2022-10-30T05:48:32Z,42.805,6.029,13.3034,4.60080,2470.591,2022-10-30T07:50:29Z
2022-10-30T05:51:36Z,42.805,6.029,13.3032,4.60074,2470.637,2022-10-30T07:53:32Z
2022-10-30T05:54:39Z,42.805,6.029,13.3031,4.60078,2470.646,2022-10-30T07:56:35Z
2022-10-30T05:57:42Z,42.805,6.029,13.3036,4.60077,2470.624,2022-10-30T07:59:38Z
2022-10-30T06:00:45Z,42.805,6.029,13.3035,4.60074,2470.614,2022-10-30T08:02:41Z
2022-10-30T06:03:48Z,42.805,6.029,13.3039,4.60078,2470.6,2022-10-30T08:05:45Z
2022-10-30T06:06:51Z,42.805,6.029,13.3036,4.60075,2470.614,2022-10-30T08:08:48Z
2022-10-30T06:09:54Z,42.805,6.029,13.3030,4.60071,2470.6,2022-10-30T08:11:51Z
2022-10-30T06:12:57Z,42.805,6.029,13.3026,4.60070,2470.646,2022-10-30T08:14:54Z
2022-10-30T06:16:00Z,42.805,6.029,13.3030,4.60070,2470.6,2022-10-30T08:17:57Z
2022-10-30T06:19:03Z,42.805,6.029,13.3033,4.60073,2470.6,2022-10-30T08:21:00Z
2022-10-30T06:22:06Z,42.805,6.029,13.3036,4.60069,2470.661,2022-10-30T08:24:03Z
2022-10-30T06:25:09Z,42.805,6.029,13.3037,4.60074,2470.624,2022-10-30T08:27:06Z
2022-10-30T06:28:12Z,42.805,6.029,13.3033,4.60072,2470.646,2022-10-30T08:30:09Z
2022-10-30T06:31:16Z,42.805,6.029,13.3032,4.60062,2470.624,2022-10-30T08:33:12Z
2022-10-30T06:34:19Z,42.805,6.029,13.3031,4.60076,2470.684,2022-10-30T08:36:15Z
2022-10-30T06:37:22Z,42.805,6.029,13.3024,4.60086,2470.6,2022-10-30T08:39:18Z
2022-10-30T06:40:25Z,42.805,6.029,13.3031,4.60087,2470.661,2022-10-30T08:42:22Z
2022-10-30T06:43:28Z,42.805,6.029,13.3025,4.60069,2470.637,2022-10-30T08:45:25Z
2022-10-30T06:46:31Z,42.805,6.029,13.3031,4.60074,2470.661,2022-10-30T08:48:28Z
2022-10-30T06:49:34Z,42.805,6.029,13.3033,4.60069,2470.661,2022-10-30T08:51:31Z
2022-10-30T06:52:37Z,42.805,6.029,13.3035,4.60067,2470.646,2022-10-30T08:54:34Z
2022-10-30T06:55:40Z,42.805,6.029,13.3027,4.60066,2470.67,2022-10-30T08:57:37Z
2022-10-30T06:58:43Z,42.805,6.029,13.3021,4.60071,2470.637,2022-10-30T09:00:40Z
2022-10-30T07:01:46Z,42.805,6.029,13.3033,4.60070,2470.646,2022-10-30T09:03:43Z
2022-10-30T07:04:49Z,42.805,6.029,13.3035,4.60069,2470.624,2022-10-30T09:06:46Z
2022-10-30T07:07:53Z,42.805,6.029,13.3036,4.60072,2470.67,2022-10-30T09:09:49Z
2022-10-30T07:10:56Z,42.805,6.029,13.3034,4.60077,2470.661,2022-10-30T09:12:52Z
2022-10-30T07:13:59Z,42.805,6.029,13.3034,4.60074,2470.717,2022-10-30T09:15:55Z
2022-10-30T07:17:02Z,42.805,6.029,13.3035,4.60077,2470.67,2022-10-30T09:18:58Z
2022-10-30T07:20:05Z,42.805,6.029,13.3033,4.60077,2470.67,2022-10-30T09:22:01Z
2022-10-30T07:23:08Z,42.805,6.029,13.3042,4.60074,2470.661,2022-10-30T09:25:05Z
2022-10-30T07:26:11Z,42.805,6.029,13.3036,4.60072,2470.73,2022-10-30T09:28:08Z
2022-10-30T07:29:14Z,42.805,6.029,13.3043,4.60080,2470.693,2022-10-30T09:31:11Z
2022-10-30T07:32:17Z,42.805,6.029,13.3032,4.60073,2470.707,2022-10-30T09:34:14Z
2022-10-30T07:35:20Z,42.805,6.029,13.3029,4.60075,2470.67,2022-10-30T09:37:17Z
2022-10-30T07:38:23Z,42.805,6.029,13.3031,4.60096,2470.67,2022-10-30T09:40:20Z
2022-10-30T07:41:26Z,42.805,6.029,13.3043,4.60072,2470.67,2022-10-30T09:43:23Z
2022-10-30T07:44:29Z,42.805,6.029,13.3033,4.60075,2470.684,2022-10-30T09:46:26Z
2022-10-30T07:47:33Z,42.805,6.029,13.3043,4.60074,2470.693,2022-10-30T09:49:29Z
2022-10-30T07:50:36Z,42.805,6.029,13.3037,4.60074,2470.717,2022-10-30T09:52:32Z
2022-10-30T07:53:39Z,42.805,6.029,13.3043,4.60073,2470.73,2022-10-30T09:55:35Z
2022-10-30T07:56:42Z,42.805,6.029,13.3034,4.60072,2470.707,2022-10-30T09:58:38Z
2022-10-30T07:59:45Z,42.805,6.029,13.3040,4.60072,2470.717,2022-10-30T10:01:42Z
2022-10-30T08:02:48Z,42.805,6.029,13.3044,4.60069,2470.693,2022-10-30T10:04:45Z
2022-10-30T08:05:51Z,42.805,6.029,13.3031,4.60070,2470.67,2022-10-30T10:07:48Z
2022-10-30T08:08:54Z,42.805,6.029,13.3031,4.60072,2470.73,2022-10-30T10:10:51Z
2022-10-30T08:11:57Z,42.805,6.029,13.3034,4.60076,2470.74,2022-10-30T10:13:54Z
2022-10-30T08:15:00Z,42.805,6.029,13.3031,4.60072,2470.74,2022-10-30T10:16:57Z
2022-10-30T08:18:03Z,42.805,6.029,13.3035,4.60074,2470.763,2022-10-30T10:20:00Z
2022-10-30T08:21:06Z,42.805,6.029,13.3036,4.60087,2470.73,2022-10-30T10:23:03Z
2022-10-30T08:24:09Z,42.805,6.029,13.3036,4.60076,2470.74,2022-10-30T10:26:06Z
2022-10-30T08:27:13Z,42.805,6.029,13.3027,4.60078,2470.74,2022-10-30T10:29:09Z
2022-10-30T08:30:16Z,42.805,6.029,13.3030,4.60077,2470.74,2022-10-30T10:32:12Z
2022-10-30T08:33:19Z,42.805,6.029,13.3036,4.60076,2470.777,2022-10-30T10:35:15Z
2022-10-30T08:36:22Z,42.805,6.029,13.3042,4.60073,2470.717,2022-10-30T10:38:18Z
2022-10-30T08:39:25Z,42.805,6.029,13.3032,4.60076,2470.74,2022-10-30T10:41:22Z
2022-10-30T08:42:28Z,42.805,6.029,13.3029,4.60075,2470.74,2022-10-30T10:44:25Z
2022-10-30T08:45:31Z,42.805,6.029,13.3030,4.60072,2470.74,2022-10-30T10:47:28Z
2022-10-30T08:48:34Z,42.805,6.029,13.3026,4.60074,2470.763,2022-10-30T10:50:31Z
2022-10-30T08:51:37Z,42.805,6.029,13.3036,4.60079,2470.74,2022-10-30T10:53:34Z
2022-10-30T08:54:40Z,42.805,6.029,13.3065,4.60078,2470.777,2022-10-30T10:56:37Z
2022-10-30T08:57:43Z,42.805,6.029,13.3034,4.60078,2470.763,2022-10-30T10:59:40Z
2022-10-30T09:00:46Z,42.805,6.029,13.3031,4.60079,2470.74,2022-10-30T11:02:43Z
2022-10-30T09:03:50Z,42.805,6.029,13.3039,4.60075,2470.74,2022-10-30T11:05:46Z
2022-10-30T09:06:53Z,42.805,6.029,13.3030,4.60091,2470.777,2022-10-30T11:08:49Z
2022-10-30T09:09:56Z,42.805,6.029,13.3029,4.60080,2470.74,2022-10-30T11:11:52Z
2022-10-30T09:12:59Z,42.805,6.029,13.3036,4.60080,2470.763,2022-10-30T11:14:55Z
2022-10-30T09:16:02Z,42.805,6.029,13.3029,4.60069,2470.787,2022-10-30T11:17:59Z
2022-10-30T09:19:05Z,42.805,6.029,13.3032,4.60072,2470.754,2022-10-30T11:21:02Z
2022-10-30T09:22:08Z,42.805,6.029,13.3036,4.60075,2470.74,2022-10-30T11:24:05Z
2022-10-30T09:25:11Z,42.805,6.029,13.3033,4.60070,2470.8,2022-10-30T11:27:08Z
2022-10-30T09:28:14Z,42.805,6.029,13.3028,4.60074,2470.763,2022-10-30T11:30:11Z
2022-10-30T09:31:17Z,42.805,6.029,13.3026,4.60074,2470.8,2022-10-30T11:33:14Z
2022-10-30T09:34:20Z,42.805,6.029,13.3036,4.60079,2470.74,2022-10-30T11:36:17Z
2022-10-30T09:37:23Z,42.805,6.029,13.3033,4.60080,2470.763,2022-10-30T11:39:20Z
2022-10-30T09:40:27Z,42.805,6.029,13.3036,4.60069,2470.777,2022-10-30T11:42:23Z
2022-10-30T09:43:30Z,42.805,6.029,13.3032,4.60077,2470.8,2022-10-30T11:45:26Z
2022-10-30T09:46:33Z,42.805,6.029,13.3041,4.60079,2470.763,2022-10-30T11:48:29Z
2022-10-30T09:49:36Z,42.805,6.029,13.3034,4.60074,2470.787,2022-10-30T11:51:32Z
2022-10-30T09:52:39Z,42.805,6.029,13.3037,4.60071,2470.8,2022-10-30T11:54:36Z
2022-10-30T09:55:42Z,42.805,6.029,13.3033,4.60077,2470.81,2022-10-30T11:57:39Z
2022-10-30T09:58:45Z,42.805,6.029,13.3031,4.60074,2470.787,2022-10-30T12:00:42Z
2022-10-30T10:01:48Z,42.805,6.029,13.3040,4.60078,2470.777,2022-10-30T12:03:45Z
2022-10-30T10:04:51Z,42.805,6.029,13.3040,4.60084,2470.754,2022-10-30T12:06:48Z
2022-10-30T10:07:54Z,42.805,6.029,13.3036,4.60073,2470.8,2022-10-30T12:09:51Z
2022-10-30T10:10:57Z,42.805,6.029,13.3048,4.60074,2470.787,2022-10-30T12:12:54Z
2022-10-30T10:14:00Z,42.805,6.029,13.3032,4.60089,2470.777,2022-10-30T12:15:57Z
2022-10-30T10:17:04Z,42.805,6.029,13.3037,4.60080,2470.777,2022-10-30T12:19:00Z
2022-10-30T10:20:07Z,42.805,6.029,13.3041,4.60087,2470.8,2022-10-30T12:22:03Z
2022-10-30T10:23:10Z,42.805,6.029,13.3040,4.60074,2470.787,2022-10-30T12:25:06Z
2022-10-30T10:26:13Z,42.805,6.029,13.3036,4.60081,2470.763,2022-10-30T12:28:09Z
2022-10-30T10:29:16Z,42.805,6.029,13.3040,4.60094,2470.8,2022-10-30T12:31:13Z
2022-10-30T10:32:19Z,42.805,6.029,13.3039,4.60082,2470.81,2022-10-30T12:34:16Z
2022-10-30T10:35:22Z,42.805,6.029,13.3040,4.60079,2470.824,2022-10-30T12:37:19Z
2022-10-30T10:38:25Z,42.805,6.029,13.3037,4.60080,2470.81,2022-10-30T12:40:22Z
2022-10-30T10:41:28Z,42.805,6.029,13.3050,4.60088,2470.81,2022-10-30T12:43:25Z
2022-10-30T10:44:31Z,42.805,6.029,13.3048,4.60079,2470.8,2022-10-30T12:46:28Z
2022-10-30T10:47:34Z,42.805,6.029,13.3044,4.60074,2470.81,2022-10-30T12:49:31Z
2022-10-30T10:50:37Z,42.805,6.029,13.3036,4.60079,2470.763,2022-10-30T12:52:34Z
2022-10-30T10:53:41Z,42.805,6.029,13.3041,4.60088,2470.81,2022-10-30T12:55:37Z
2022-10-30T10:56:44Z,42.805,6.029,13.3039,4.60081,2470.824,2022-10-30T12:58:40Z
2022-10-30T10:59:47Z,42.805,6.029,13.3036,4.60081,2470.81,2022-10-30T13:01:43Z
2022-10-30T11:02:50Z,42.805,6.029,13.3049,4.60085,2470.81,2022-10-30T13:04:46Z
2022-10-30T11:05:53Z,42.805,6.029,13.3029,4.60076,2470.81,2022-10-30T13:07:50Z
2022-10-30T11:08:56Z,42.805,6.029,13.3036,4.60084,2470.787,2022-10-30T13:10:53Z
2022-10-30T11:11:59Z,42.805,6.029,13.3039,4.60086,2470.824,2022-10-30T13:13:56Z
2022-10-30T11:15:02Z,42.805,6.029,13.3039,4.60088,2470.824,2022-10-30T13:16:59Z
2022-10-30T11:18:05Z,42.805,6.029,13.3043,4.60081,2470.787,2022-10-30T13:20:02Z
2022-10-30T11:21:08Z,42.805,6.029,13.3048,4.60086,2470.81,2022-10-30T13:23:05Z
2022-10-30T11:24:11Z,42.805,6.029,13.3048,4.60079,2470.777,2022-10-30T13:26:08Z
2022-10-30T11:27:14Z,42.805,6.029,13.3058,4.60079,2470.81,2022-10-30T13:29:11Z
2022-10-30T11:30:18Z,42.805,6.029,13.3036,4.60095,2470.777,2022-10-30T13:32:14Z
2022-10-30T11:33:21Z,42.805,6.029,13.3046,4.60086,2470.763,2022-10-30T13:35:17Z
2022-10-30T11:36:24Z,42.805,6.029,13.3051,4.60090,2470.777,2022-10-30T13:38:20Z
2022-10-30T11:39:27Z,42.805,6.029,13.3046,4.60081,2470.787,2022-10-30T13:41:23Z
2022-10-30T11:42:30Z,42.805,6.029,13.3061,4.60081,2470.8,2022-10-30T13:44:27Z
2022-10-30T11:45:33Z,42.805,6.029,13.3058,4.60082,2470.787,2022-10-30T13:47:30Z
2022-10-30T11:48:36Z,42.805,6.029,13.3067,4.60097,2470.763,2022-10-30T13:50:33Z
2022-10-30T11:51:39Z,42.805,6.029,13.3051,4.60095,2470.787,2022-10-30T13:53:36Z
2022-10-30T11:54:42Z,42.805,6.029,13.3053,4.60090,2470.763,2022-10-30T13:56:39Z
2022-10-30T11:57:45Z,42.805,6.029,13.3051,4.60076,2470.763,2022-10-30T13:59:42Z
2022-10-30T12:00:48Z,42.805,6.029,13.3041,4.60097,2470.777,2022-10-30T14:02:45Z
2022-10-30T12:03:51Z,42.805,6.029,13.3061,4.60086,2470.763,2022-10-30T14:05:48Z
2022-10-30T12:06:54Z,42.805,6.029,13.3056,4.60082,2470.777,2022-10-30T14:08:51Z
2022-10-30T12:09:58Z,42.805,6.029,13.3041,4.60079,2470.763,2022-10-30T14:11:54Z
2022-10-30T12:13:01Z,42.805,6.029,13.3046,4.60079,2470.777,2022-10-30T14:14:57Z
2022-10-30T12:16:04Z,42.805,6.029,13.3049,4.60088,2470.787,2022-10-30T14:18:00Z
2022-10-30T12:19:07Z,42.805,6.029,13.3054,4.60087,2470.787,2022-10-30T14:21:04Z
2022-10-30T12:22:10Z,42.805,6.029,13.3054,4.60097,2470.717,2022-10-30T14:24:07Z
2022-10-30T12:25:13Z,42.805,6.029,13.3061,4.60097,2470.8,2022-10-30T14:27:10Z
2022-10-30T12:28:16Z,42.805,6.029,13.3059,4.60093,2470.777,2022-10-30T14:30:13Z
2022-10-30T12:31:19Z,42.805,6.029,13.3043,4.60084,2470.777,2022-10-30T14:33:16Z
2022-10-30T12:34:22Z,42.805,6.029,13.3044,4.60084,2470.777,2022-10-30T14:36:19Z
2022-10-30T12:37:25Z,42.805,6.029,13.3044,4.60084,2470.74,2022-10-30T14:39:22Z
2022-10-30T12:40:28Z,42.805,6.029,13.3058,4.60086,2470.824,2022-10-30T14:42:25Z
2022-10-30T12:43:32Z,42.805,6.029,13.3080,4.60079,2470.763,2022-10-30T14:45:28Z
2022-10-30T12:46:35Z,42.805,6.029,13.3036,4.60086,2470.754,2022-10-30T14:48:31Z
2022-10-30T12:49:38Z,42.805,6.029,13.3041,4.60092,2470.754,2022-10-30T14:51:34Z
2022-10-30T12:52:41Z,42.805,6.029,13.3070,4.60092,2470.763,2022-10-30T14:54:37Z
2022-10-30T12:55:44Z,42.805,6.029,13.3061,4.60092,2470.763,2022-10-30T14:57:41Z
2022-10-30T12:58:47Z,42.805,6.029,13.3061,4.60089,2470.717,2022-10-30T15:00:44Z
2022-10-30T13:01:50Z,42.805,6.029,13.3056,4.60085,2470.763,2022-10-30T15:03:47Z
2022-10-30T13:04:53Z,42.805,6.029,13.3047,4.60096,2470.754,2022-10-30T15:06:50Z
2022-10-30T13:07:56Z,42.805,6.029,13.3041,4.60099,2470.777,2022-10-30T15:09:53Z
2022-10-30T13:10:59Z,42.805,6.029,13.3054,4.60083,2470.754,2022-10-30T15:12:56Z
2022-10-30T13:14:02Z,42.805,6.029,13.3059,4.60080,2470.74,2022-10-30T15:15:59Z
2022-10-30T13:17:05Z,42.805,6.029,13.3045,4.60095,2470.73,2022-10-30T15:19:02Z
2022-10-30T13:20:08Z,42.805,6.029,13.3056,4.60097,2470.717,2022-10-30T15:22:05Z
2022-10-30T13:23:12Z,42.805,6.029,13.3052,4.60084,2470.74,2022-10-30T15:25:08Z
2022-10-30T13:26:15Z,42.805,6.029,13.3069,4.60079,2470.717,2022-10-30T15:28:11Z
2022-10-30T13:29:18Z,42.805,6.029,13.3045,4.60079,2470.754,2022-10-30T15:31:14Z
2022-10-30T13:32:21Z,42.805,6.029,13.3053,4.60091,2470.73,2022-10-30T15:34:18Z
2022-10-30T13:35:24Z,42.805,6.029,13.3060,4.60104,2470.74,2022-10-30T15:37:21Z
2022-10-30T13:38:27Z,42.805,6.029,13.3054,4.60089,2470.73,2022-10-30T15:40:24Z
2022-10-30T13:41:30Z,42.805,6.029,13.3077,4.60099,2470.707,2022-10-30T15:43:27Z
2022-10-30T13:44:33Z,42.805,6.029,13.3048,4.60123,2470.707,2022-10-30T15:46:30Z
2022-10-30T13:47:36Z,42.805,6.029,13.3069,4.60092,2470.754,2022-10-30T15:49:33Z
2022-10-30T13:50:39Z,42.805,6.029,13.3056,4.60093,2470.754,2022-10-30T15:52:36Z
2022-10-30T13:53:42Z,42.805,6.029,13.3076,4.60091,2470.754,2022-10-30T15:55:39Z
2022-10-30T13:56:46Z,42.805,6.029,13.3066,4.60097,2470.717,2022-10-30T15:58:42Z
2022-10-30T13:59:49Z,42.805,6.029,13.3062,4.60105,2470.73,2022-10-30T16:01:45Z
2022-10-30T14:02:52Z,42.805,6.029,13.3062,4.60083,2470.754,2022-10-30T16:04:48Z
2022-10-30T14:05:55Z,42.805,6.029,13.3067,4.60102,2470.73,2022-10-30T16:07:51Z
2022-10-30T14:08:58Z,42.805,6.029,13.3072,4.60098,2470.74,2022-10-30T16:10:55Z
2022-10-30T14:12:01Z,42.805,6.029,13.3054,4.60105,2470.707,2022-10-30T16:13:58Z
2022-10-30T14:15:04Z,42.805,6.029,13.3060,4.60087,2470.73,2022-10-30T16:17:01Z
2022-10-30T14:18:07Z,42.805,6.029,13.3069,4.60097,2470.684,2022-10-30T16:20:04Z
2022-10-30T14:21:10Z,42.805,6.029,13.3053,4.60102,2470.693,2022-10-30T16:23:07Z
2022-10-30T14:24:13Z,42.805,6.029,13.3056,4.60104,2470.693,2022-10-30T16:26:10Z
2022-10-30T14:27:16Z,42.805,6.029,13.3075,4.60104,2470.693,2022-10-30T16:29:13Z
2022-10-30T14:30:19Z,42.805,6.029,13.3065,4.60108,2470.693,2022-10-30T16:32:16Z
2022-10-30T14:33:22Z,42.805,6.029,13.3069,4.60113,2470.754,2022-10-30T16:35:19Z
2022-10-30T14:36:26Z,42.805,6.029,13.3078,4.60094,2470.73,2022-10-30T16:38:22Z
2022-10-30T14:39:29Z,42.805,6.029,13.3080,4.60099,2470.707,2022-10-30T16:41:25Z
2022-10-30T14:42:32Z,42.805,6.029,13.3052,4.60085,2470.684,2022-10-30T16:44:28Z
2022-10-30T14:45:35Z,42.805,6.029,13.3068,4.60087,2470.67,2022-10-30T16:47:32Z
2022-10-30T14:48:38Z,42.805,6.029,13.3067,4.60104,2470.73,2022-10-30T16:50:35Z
2022-10-30T14:51:41Z,42.805,6.029,13.3056,4.60146,2470.707,2022-10-30T16:53:38Z
2022-10-30T14:54:44Z,42.805,6.029,13.3082,4.60098,2470.67,2022-10-30T16:56:41Z
2022-10-30T14:57:47Z,42.805,6.029,13.3088,4.60089,2470.684,2022-10-30T16:59:44Z
2022-10-30T15:00:50Z,42.805,6.029,13.3076,4.60097,2470.707,2022-10-30T17:02:47Z